Location: Bemmer
(51.5498°N, 5.6249°E)
Time: 11:36:05
(UTC+00:00)

Cosmos 1515 - Pass Details

Date: 03 March 2021
Orbit: 504 x 516 km, 82.5° (Epoch: 12 April)

Event Time Altitude Azimuth Distance (km) Brightness Sun altitude
Rises 17:53:16 0° 352° (N) 2,650 7.4 -5.7°
Reaches altitude 10° 17:55:27 10° 358° (N) 1,756 6.4 -6.1°
Maximum altitude 17:59:14 54° 76° (ENE) 637 3.8 -6.6°
Drops below altitude 10° 18:02:58 10° 154° (SSE) 1,736 6.1 -7.2°
Sets 18:05:07 0° 159° (SSE) 2,615 7.1 -7.6°
